Regional Weather Roundup
Issued by NWS

Current Version | Previous Version | Graphics & Text | Print | Product List | Glossary On
Versions: 1 2 3 4 5 6 7 8 9 10 11 12 13 14 15 16 17 18 19 20 21 22 23 24 25 26 27 28 29 30 31 32 33 34 35 36 37 38 39 40 41 42 43 44 45 46 47 48 49 50
000
ASHW40 PHFO 012343
RWRHI

WEATHER ROUNDUP FOR HAWAII
NATIONAL WEATHER SERVICE HONOLULU HI
100 PM HST SUN MAY 01 2016

THIS IS AN AUTOMATED REPORT THAT HAS NOT BEEN QUALITY CONTROLLED.

NOTE..."FAIR" INDICATES FEW OR NO CLOUDS BELOW 12,000 FEET WITH NO
SIGNIFICANT WEATHER AND/OR OBSTRUCTIONS TO VISIBILITY.

* - THESE SITES REPORT LIMITED FIELDS

HIZ001>004-020000-
KAUAI-NIIHAU-

CITY           SKY/WX    TMP DP  RH WIND       PRES   REMARKS
LIHUE APT      PTSUNNY   82  64  54 NE17      30.11F
PORT ALLEN*      N/A     84 N/A N/A E20G28      N/A
POIPU*           N/A     84 N/A N/A NE9G21      N/A
PRINCEVILLE*     N/A     79 N/A N/A E13G22      N/A
KOKOLE POINT*  NOT AVBL
MOLOAA DAIRY*    N/A     82  66  57 E7G16       N/A
WAIMEA HTS*      N/A     82  64  54 SW6G18      N/A
PUU OPAE*        N/A     73  63  68 W3G10       N/A
PUU LUA*       NOT AVBL
MAKAHA RIDGE*    N/A     79  63  57 SW3         N/A
$$

HIZ005>011-020000-
OAHU-

CITY           SKY/WX    TMP DP  RH WIND       PRES   REMARKS
HONOLULU       PTSUNNY   84  64  50 NE12G20   30.07F
KALAELOA       MOSUNNY   86  62  44 E8G21     30.07F
KANEOHE MCB    PTSUNNY   79  66  64 E12G18    30.07F
WHEELER FIELD  FAIR      75  66  73 E9        30.07F
BELLOWS*         N/A    N/A N/A N/A NE16G22     N/A
KAHUKU*          N/A    N/A N/A N/A VRB9G21     N/A
WHEELER*         N/A    N/A N/A N/A NE6G12      N/A
WAIANAE HARBOR   N/A    N/A N/A N/A E8G18       N/A
DILLINGHAM*      N/A     64  41  42 MISG        N/A
KAHUKU TRN*      N/A     82  68  61 CALM        N/A
KAWAILOA*        N/A     75  64  69 NE10G20     N/A
KII*             N/A     79  68  69 NE16        N/A
MAKUA RANGE*     N/A     84  59  42 E10G21      N/A
OAHU FOREST NW   N/A     72  66  83 SW10G35     N/A
SCHOFIELD BRK*   N/A    N/A N/A N/A MISG        N/A
SCHOFIELD S*   NOT AVBL
WAIANAE VLY*     N/A     70  48  46 SE5G17      N/A
KUAOKALA*        N/A     73  64  73 N14G29      N/A
HONOULIUULI*   NOT AVBL
MOKUOLOE IS*   NOT AVBL
PALEHUA*         N/A     73  63  68 NE3G22      N/A
WAIAWA PHB*    NOT AVBL
$$

HIZ012>013-020000-
MOLOKAI-

CITY           SKY/WX    TMP DP  RH WIND       PRES   REMARKS
MOLOKAI AIRPT  MOSUNNY   80  66  62 NE17G30   30.07F
KALAUPAPA      NOT AVBL
MAKAPULAPAI*     N/A     81  68  65 E18G28      N/A
MOLOKAI 1*       N/A    N/A N/A N/A NW3G12      N/A
PUU ALII*        N/A     64  60  86 N3G12       N/A
$$

HIZ016-020000-
KAHOOLAWE-

CITY           SKY/WX    TMP DP  RH WIND       PRES   REMARKS
KAHOOLAWE*       N/A     75 N/A N/A E1          N/A
HAKIOAWA*        N/A     75  67  75 MISG      30.47F
HONOKANAIA*      N/A     85  61  43 NE14G31   30.01F
KANELOA*         N/A     79  66  65 E20G33    30.13F
KEALIALALO*    NOT AVBL
LUA MAKIKA*    NOT AVBL
$$

HIZ014>015-020000-
LANAI-

CITY           SKY/WX    TMP DP  RH WIND       PRES   REMARKS
LANAI CITY     FAIR      79  64  60 NE18      30.10F
LANAI 1*         N/A     79  68  69 NE17G28     N/A
$$

HIZ017>028-020000-
MAUI-

CITY           SKY/WX    TMP DP  RH WIND       PRES   REMARKS
KAHULUI        MOSUNNY   84  68  58 NE24G31   30.04F
KAPALUA-W MAUI MOSUNNY   82  64  54 E15G26    30.07
HANA AIRPORT   NOT AVBL
HANA*            N/A     79 N/A N/A NE10        N/A
HALEAKALA SUMM   N/A     52  27  37 E15G31      N/A
MAALAEA BAY*     N/A     84 N/A N/A N21G33      N/A
HALEAKALA*     NOT AVBL
KAUPO GAP*       N/A     75  61  60 W5G23       N/A
KULA 1*          N/A     63  56  79 W5G14       N/A
$$

HIZ023>026-020000-
BIG ISLAND OF HAWAII COAST AND LOWER SLOPES-

CITY           SKY/WX    TMP DP  RH WIND       PRES   REMARKS
KAILUA KONA    MOSUNNY   83  69  62 SW12      30.01F
HILO           PTSUNNY   80  68  66 N8        30.07F
HONOKAA*         N/A     77 N/A N/A VRB1        N/A
KAWAIHAE MWT*    N/A     82 N/A N/A SW15G22     N/A
KAWAIHAE*        N/A     79 N/A N/A W13       29.99F
SOUTH POINT*     N/A     77 N/A N/A N16G28      N/A
UPOLU AIRPORT*   N/A    N/A N/A N/A NE21G30     N/A
KAMUELA*       PTCLDY    75  61  60 NE20G32   30.11F
HAKALAU*         N/A     62  53  73 E6G12       N/A
KALOKO-HONOKO*   N/A     82  66  57 SW8       30.01F
PALI 2*          N/A     75  55  50 SW17G32     N/A
KEALAKOMO*       N/A     81  68  65 E22G30      N/A
KAUPULEHU*       N/A     81  64  57 W9G16       N/A
KAPAPALA*        N/A     76  62  60 SE12G24     N/A
LOWER KAHUKU*    N/A     66 -36   1 E3G13       N/A
PUHE CS*         N/A     84  66  54 W5G13       N/A
PUHO CS*         N/A     83  67  57 W3          N/A
PTA KEAMUKU*     N/A     73  57  56 CALM        N/A
WAIKOLOA*        N/A     84  61  45 NE17G30     N/A
$$

HIZ027>028-020000-
BIG ISLAND OF HAWAII INTERIOR AND SUMMMITS-

CITY           SKY/WX    TMP DP  RH WIND       PRES   REMARKS
BRADSHAW FIELD MOSUNNY   70  48  45 SW9G18    30.32F
MK VISITOR CEN   N/A     57  21  24 SE12        N/A
MAUNA KEA*       N/A     45   0  15 E21G33      N/A
MAUNA LOA*       N/A     59   9  13 MISG        N/A
MAUNA LOA 1*   NOT AVBL
PTA KIPUKA*      N/A     46  32  57 NW8G18      N/A
PTA RANGE 17*    N/A     66  52  59 W15G25      N/A
PTA WEST*        N/A     72  57  60 NW13G23     N/A
NENE CABIN*      N/A     55  52  88 E8G17       N/A
AHUMOA*          N/A     63  55  75 VRB10G16    N/A
PTA PORTABLE*  NOT AVBL
PUU MALI*        N/A     66  54  63 E24G40      N/A
$$

HIC003-020000-
NORTHWEST ISLANDS-

CITY           SKY/WX    TMP DP  RH WIND       PRES   REMARKS
MIDWAY ISLAND  CLOUDY    75  68  78 E16       30.23S
MIDWAY NOS*      N/A     70 N/A N/A MISG      30.22S
FRENCH FRIGATE NOT AVBL
$$

PHZ110>124-180-020000-
BUOY REPORTS

STATION/POSITION TIME  TEMP    WIND        PRES    WAVE   SWELL
                       AIR SEA DIR/SP/G            HT/PER HT/DIR
                 (UTC) (F)     (DEG/KT/KT) (MB)    (FT/S) (FT/D)
BUOY 51001       2300   77 79   80/ 17/ 23 1019.3F
BUOY 51101       2250   75 76   60/ 14/ 16 1021.2F   7/11   7/330
BUOY 51100       NOT AVBL
BUOY 51002       2250   78 78   80/ 17/ 21 1015.5F   8/ 9   5/ 80
BUOY 51003       2250   78 78   80/ 14/ 16 1017.2F   7/10   7/ 70
BUOY 51004       2250   79 79   60/ 16/ 19 1015.8F   7/ 9   5/ 80
BARBERS PT BUOY  NOT AVBL
WAIMEA BAY BUOY  2304      78                N/A     5/13   3/330
KAILUA BAY BUOY  2311      78                N/A     6/ 9   2/350
LANAI BUOY       2315      79                N/A     3/17   2/200
BARBERS PT 2     2303      79                N/A     4/13   3/160
PAUWELA MAUI     2309      77                N/A     6/ 9   3/330
HILO             2312      78                N/A     6/10   2/ 80
KANEOHE BAY BUOY 2306      78                N/A     6/ 8   2/360
HANALEI KAUAI    NOT AVBL
KAHULUI HARBOR   2300   77 78              1017.6F
HONOLULU HARBOR  2300   79 78              1018.9F
KILO NALU        NOT AVBL
HILO HARBOR      2300   75 76              1017.7F
MOKUOLOE         2200      78              1019.5F
NAWILIWILI       2300   78 80              1019.3F
WHOTS BUOY       NOT AVBL
BUOY 51028       NOT AVBL
$$

......................KEY........................................
  SKY/WX - SKY CONDITIONS/PRESENT WEATHER
  TMP    - TEMPERATURE IN FAHRENHEIT
  DWPT   - DEWPOINT IN FAHRENHEIT
  RH     - RELATIVE HUMIDITY IN PERCENT
  WIND   - DIRECTION AND SPEED /MPH FOR ISLANDS...KTS FOR BUOYS/
  PRES   - MEAN SEA LEVEL PRESSURE IN INCHES OF HG
  VSB    - VISIBILITY IN MILES
  HX     - HEAT INDEX
  WCI    - WIND CHILL INDEX
  VRB    - VARIABLE WIND DIRECTION
  N/A    - NOT AVAILABLE




USA.gov is the U.S. government's official web portal to all federal, state and local government web resources and services.